{"data":{"norad_id":81624,"intl_designator":"","name":"UNKNOWN","alt_names":[],"object_type":"UNKNOWN","status":"UNKNOWN","operator":null,"country":null,"launch_date":null,"launch_site_code":null,"launch_vehicle":null,"mission":null,"orbit_class":"UNKNOWN","rcs_meters":null,"size_class":null,"mass_kg":null,"dimensions":null,"purposes":[],"wikipedia_slug":null,"has_3d_model":false,"image_url":null,"decayed_at":null,"tle_current":{"epoch":"2026-05-22T02:30:26.976096Z","epoch_age_seconds":315476,"freshness":"STALE","line1":"1 81624U          26142.10447889  .00004068  00000+0  63118-3 0  9996","line2":"2 81624  66.9741  83.0044 0055765 101.0262 259.7139 14.73139520663315","mean_motion":14.7313952,"eccentricity":0.0055765,"inclination_deg":66.9741,"raan_deg":83.0044,"arg_perigee_deg":101.0262,"mean_anomaly_deg":259.7139,"bstar":0.00063118,"rev_number":66331,"period_min":97.75041538496,"perigee_km":611.86499808733,"apogee_km":690.26166940963,"semimajor_km":7029.2003337485,"source":"CELESTRAK","updated_at":"2026-05-25T13:38:11.079984Z"}}}